Regional Weather Roundup
Issued by NWS Memphis, TN

Home | Current Version | Previous Version | Text Only | Print | Product List | Glossary On
Versions: 1 2 3 4 5 6 7 8 9 10 11 12 13 14 15 16 17 18 19 20 21 22 23 24 25 26 27 28 29 30 31 32 33 34 35 36 37 38 39 40 41 42 43 44 45 46 47 48 49 50
000
ASUS44 KMEG 251310
RWRMEG
MEMPHIS CWA HOURLY WEATHER ROUNDUP
NATIONAL WEATHER SERVICE MEMPHIS TN
800 AM CDT THU AUG 25 2016

...WEST TENNESSEE...

CITY           SKY/WX    TMP DP  RH WIND       PRES   REMARKS
MEMPHIS INTL   MOSUNNY   83  75  77 SW3       30.12R HX  90
NWS MEMPHIS      N/A     80 N/A N/A MISG        N/A
JACKSON        SUNNY     79  75  87 CALM      30.14R
LEXINGTON      SUNNY     79  75  89 CALM      30.14S
DYERSBURG      SUNNY     84  75  74 MISG      30.13R HX  92
UNION CITY     SUNNY     79  79 100 S3        30.12R
PARIS          SUNNY     79  73  83 S3        30.15R


...EASTERN ARKANSAS...

CITY           SKY/WX    TMP DP  RH WIND       PRES   REMARKS
JONESBORO      SUNNY     78  75  90 S3        30.11R
WEST MEMPHIS   SUNNY     79  77  94 CALM      30.10S
BATESVILLE     SUNNY     77  73  88 S5        30.11S
NEWPORT        SUNNY     78  76  93 S5        30.12R
WALNUT RIDGE   SUNNY     77  73  88 CALM      30.10S
BLYTHEVILLE    SUNNY     79  75  87 S3        30.12R
SEARCY         SUNNY     77  77 100 CALM      30.13R
STUTTGART      SUNNY     81  75  83 S6        30.11R
PINE BLUFF     SUNNY     78  76  93 CALM      30.11R
MONTICELLO     MOSUNNY   80  75  84 S3        30.12R


...NORTH MISSISSIPPI...

CITY           SKY/WX    TMP DP  RH WIND       PRES   REMARKS
TUPELO         SUNNY     80  74  81 SE3       30.14R
OXFORD         SUNNY     77  73  88 CALM      30.15S
BATESVILLE     SUNNY     77  75  94 CALM      30.13R
OLIVE BRANCH   MOSUNNY  N/A N/A N/A S5        30.12S
TUNICA         SUNNY     77  75  94 S3        30.12R
CLARKSDALE     SUNNY     79  79 100 CALM      30.12R
CORINTH        SUNNY     79  75  89 SE3       30.14S
GREENWOOD      SUNNY     79  74  84 CALM      30.13R
COLUMBUS       SUNNY     79  77  94 SE6       30.15R
GOLDEN TRIANGL SUNNY     79  72  78 SE7       30.15R


...SOUTHEAST MISSOURI...

CITY           SKY/WX    TMP DP  RH WIND       PRES   REMARKS
KENNETT        SUNNY     79  77  94 CALM      30.10S
WEST PLAINS    SUNNY     74  69  85 SW5       30.14S
POPLAR BLUFF   CLOUDY    75  74  96 CALM      30.11S FOG
CAPE GIRARDEAU SUNNY     77  74  90 SW6       30.10S


...NORTHWEST ALABAMA...

CITY           SKY/WX    TMP DP  RH WIND       PRES   REMARKS
MUSCLE SHOALS  SUNNY     79  74  84 SE3       30.18S


...MIDDLE TENNESSEE...

CITY           SKY/WX    TMP DP  RH WIND       PRES   REMARKS
NASHVILLE      MOSUNNY   77  72  84 S3        30.17R
CLARKSVILLE    SUNNY     78  74  87 CALM      30.15R
COLUMBIA       SUNNY    N/A N/A N/A CALM      30.16S


...WESTERN KENTUCKY...

CITY           SKY/WX    TMP DP  RH WIND       PRES   REMARKS
PADUCAH        SUNNY     78  74  87 SW5       30.11R
FORT CAMPBELL  SUNNY     79  75  86 SW5       30.14R


...CENTRAL ARKANSAS...

CITY           SKY/WX    TMP DP  RH WIND       PRES   REMARKS
LITTLE ROCK    MOSUNNY   80  74  81 W3        30.11R


SKY/WX REPORTED AS FAIR MEANS FEW OR NO CLOUDS BELOW
12 THOUSAND FEET.





USA.gov is the U.S. government's official web portal to all federal, state and local government web resources and services.